LNPIL EGJB-EGUY

Flight info

Callsign LNPIL
Flight time 0h 53m
Altitude 24000
Route ORIST L982 VASUX N867 AVANT M184 HEMEL
Aircraft PC12/L-VGDW/C

Departure

Time 2026-04-30 20:30
Airport Guernsey Airport (EGJB)

Arrival

Time 2026-04-30 21:23
Airport RAF Wyton (EGUY)
Time Latitude Longitude Altitude Speed Heading
2026-04-30 20:14 49.43282 -2.59622 323 ft 0 kts 176°
2026-04-30 20:25 49.43276 -2.59621 323 ft 2 kts 208°
2026-04-30 20:26 49.43338 -2.60093 317 ft 31 kts 268°
2026-04-30 20:26 49.43339 -2.60716 308 ft 26 kts 282°
2026-04-30 20:26 49.43364 -2.61000 305 ft 28 kts 266°
2026-04-30 20:27 49.43361 -2.61238 301 ft 0 kts 282°
2026-04-30 20:27 49.43448 -2.61367 302 ft 4 kts 24°
2026-04-30 20:28 49.43457 -2.61320 301 ft 0 kts 84°
2026-04-30 20:28 49.43466 -2.61242 303 ft 0 kts 84°
2026-04-30 20:29 49.43501 -2.60153 362 ft 100 kts 86°
2026-04-30 20:30 49.43622 -2.56074 1943 ft 130 kts 92°
2026-04-30 20:30 49.43738 -2.51713 3899 ft 141 kts 91°
2026-04-30 20:31 49.45711 -2.48173 6120 ft 157 kts 41°
2026-04-30 20:32 49.48380 -2.45089 8253 ft 164 kts 43°
2026-04-30 20:32 49.50219 -2.42959 9716 ft 168 kts 43°
2026-04-30 20:33 49.51156 -2.41874 10413 ft 170 kts 44°
2026-04-30 20:33 49.53056 -2.39670 11785 ft 173 kts 44°
2026-04-30 20:33 49.54022 -2.38549 12475 ft 175 kts 44°
2026-04-30 20:34 49.55989 -2.36263 13859 ft 179 kts 44°
2026-04-30 20:34 49.57995 -2.33931 15091 ft 182 kts 43°
2026-04-30 20:35 49.59014 -2.32745 15716 ft 184 kts 43°
2026-04-30 20:35 49.60043 -2.31547 16345 ft 186 kts 43°
2026-04-30 20:35 49.62131 -2.29115 17622 ft 190 kts 42°
2026-04-30 20:36 49.63190 -2.27878 18263 ft 192 kts 42°
2026-04-30 20:36 49.64263 -2.26627 18823 ft 195 kts 42°
2026-04-30 20:36 49.66649 -2.23822 19160 ft 241 kts 43°
2026-04-30 20:37 49.68047 -2.22180 19159 ft 263 kts 42°
2026-04-30 20:37 49.69548 -2.20431 19157 ft 276 kts 42°
2026-04-30 20:37 49.71103 -2.18617 19154 ft 284 kts 41°
2026-04-30 20:37 49.72687 -2.16766 19149 ft 288 kts 42°
2026-04-30 20:38 49.74289 -2.14886 19155 ft 290 kts 42°
2026-04-30 20:38 49.75901 -2.12992 19153 ft 291 kts 42°
2026-04-30 20:38 49.77518 -2.11094 19183 ft 290 kts 42°
2026-04-30 20:39 49.80449 -2.07668 20836 ft 240 kts 42°
2026-04-30 20:39 49.81707 -2.06188 21912 ft 214 kts 42°
2026-04-30 20:39 49.82850 -2.04839 22769 ft 204 kts 42°
2026-04-30 20:40 49.85229 -2.02001 23273 ft 238 kts 41°
2026-04-30 20:40 49.86603 -2.00374 23311 ft 258 kts 41°
2026-04-30 20:40 49.88072 -1.98646 23351 ft 271 kts 41°
2026-04-30 20:41 49.91165 -1.94993 23402 ft 286 kts 41°
2026-04-30 20:41 49.92758 -1.93106 23417 ft 289 kts 40°
2026-04-30 20:41 49.94365 -1.91201 23435 ft 292 kts 40°
2026-04-30 20:41 49.95977 -1.89289 23463 ft 292 kts 41°
2026-04-30 20:42 49.97598 -1.87365 23496 ft 294 kts 41°
2026-04-30 20:42 49.99220 -1.85437 23555 ft 293 kts 41°
2026-04-30 20:42 50.02801 -1.82307 23647 ft 297 kts 30°
2026-04-30 20:43 50.04647 -1.80845 23655 ft 299 kts 31°
2026-04-30 20:43 50.06501 -1.79365 23716 ft 299 kts 31°
2026-04-30 20:43 50.08352 -1.77900 23783 ft 298 kts 31°
2026-04-30 20:44 50.12042 -1.74946 23894 ft 297 kts 34°
2026-04-30 20:44 50.13677 -1.73033 23944 ft 293 kts 45°
2026-04-30 20:44 50.16790 -1.68998 24086 ft 293 kts 44°
2026-04-30 20:45 50.19936 -1.64926 24144 ft 296 kts 45°
2026-04-30 20:45 50.21518 -1.62870 24145 ft 296 kts 45°
2026-04-30 20:45 50.23098 -1.60822 24145 ft 295 kts 45°
2026-04-30 20:46 50.27815 -1.54690 24147 ft 293 kts 45°
2026-04-30 20:46 50.29388 -1.52658 24146 ft 293 kts 45°
2026-04-30 20:47 50.32533 -1.48586 24150 ft 293 kts 45°
2026-04-30 20:47 50.34104 -1.46547 24155 ft 293 kts 45°
2026-04-30 20:48 50.37243 -1.42468 24155 ft 293 kts 45°
2026-04-30 20:48 50.38813 -1.40425 24155 ft 293 kts 45°
2026-04-30 20:48 50.40381 -1.38384 24141 ft 293 kts 46°
2026-04-30 20:48 50.41949 -1.36341 24161 ft 293 kts 46°
2026-04-30 20:49 50.43514 -1.34298 24160 ft 293 kts 46°
2026-04-30 20:49 50.45062 -1.32276 24161 ft 294 kts 46°
2026-04-30 20:49 50.46634 -1.30222 24161 ft 294 kts 46°
2026-04-30 20:50 50.49777 -1.26110 24164 ft 294 kts 45°
2026-04-30 20:50 50.51471 -1.24267 24170 ft 298 kts 37°
2026-04-30 20:50 50.53231 -1.22548 24171 ft 298 kts 38°
2026-04-30 20:50 50.54984 -1.20805 24171 ft 298 kts 38°
2026-04-30 20:51 50.56736 -1.19061 24172 ft 298 kts 38°
2026-04-30 20:51 50.60250 -1.15576 24175 ft 298 kts 38°
2026-04-30 20:51 50.62001 -1.13834 24175 ft 298 kts 38°
2026-04-30 20:52 50.63759 -1.12086 24178 ft 298 kts 38°
2026-04-30 20:52 50.65513 -1.10339 24179 ft 298 kts 38°
2026-04-30 20:52 50.68430 -1.07430 24180 ft 299 kts 38°
2026-04-30 20:53 50.70190 -1.05673 24188 ft 299 kts 38°
2026-04-30 20:53 50.72521 -1.03344 24188 ft 299 kts 38°
2026-04-30 20:53 50.74281 -1.01583 24188 ft 299 kts 38°
2026-04-30 20:54 50.77804 -0.98054 24188 ft 299 kts 38°
2026-04-30 20:54 50.78970 -0.96885 24192 ft 299 kts 38°
2026-04-30 20:54 50.80727 -0.95121 24192 ft 299 kts 38°
2026-04-30 20:55 50.84596 -0.92509 24198 ft 305 kts 23°
2026-04-30 20:55 50.86617 -0.91470 24198 ft 305 kts 23°
2026-04-30 20:55 50.88639 -0.90417 24198 ft 306 kts 23°
2026-04-30 20:56 50.92690 -0.88325 24200 ft 306 kts 23°
2026-04-30 20:56 50.94720 -0.87274 24200 ft 306 kts 23°
2026-04-30 20:56 50.98773 -0.85173 24207 ft 307 kts 23°
2026-04-30 20:57 51.00801 -0.84121 24208 ft 307 kts 23°
2026-04-30 20:57 51.02830 -0.83067 24208 ft 307 kts 23°
2026-04-30 20:57 51.04858 -0.82012 24210 ft 307 kts 23°
2026-04-30 20:58 51.08915 -0.79901 24211 ft 306 kts 23°
2026-04-30 20:58 51.10942 -0.78844 24211 ft 306 kts 23°
2026-04-30 20:58 51.12968 -0.77786 24212 ft 306 kts 23°
2026-04-30 20:58 51.14992 -0.76729 24211 ft 306 kts 23°
2026-04-30 20:59 51.19045 -0.74610 24213 ft 306 kts 23°
2026-04-30 20:59 51.21067 -0.73549 24212 ft 306 kts 23°
2026-04-30 21:00 51.25116 -0.71427 24209 ft 306 kts 23°
2026-04-30 21:00 51.29140 -0.69312 24208 ft 306 kts 23°
2026-04-30 21:01 51.33188 -0.67180 24231 ft 306 kts 23°
2026-04-30 21:01 51.35219 -0.66110 24227 ft 307 kts 23°
2026-04-30 21:01 51.39272 -0.63970 24232 ft 307 kts 23°
2026-04-30 21:02 51.41299 -0.62898 24234 ft 307 kts 23°
2026-04-30 21:02 51.43333 -0.61822 24235 ft 307 kts 23°
2026-04-30 21:02 51.45360 -0.60749 24236 ft 307 kts 23°
2026-04-30 21:02 51.47388 -0.59674 24237 ft 307 kts 23°
2026-04-30 21:03 51.49416 -0.58597 24237 ft 307 kts 23°
2026-04-30 21:03 51.51444 -0.57520 24238 ft 307 kts 23°
2026-04-30 21:03 51.53471 -0.56443 24237 ft 307 kts 23°
2026-04-30 21:03 51.55498 -0.55364 24237 ft 307 kts 23°
2026-04-30 21:04 51.57527 -0.54283 24232 ft 307 kts 23°
2026-04-30 21:04 51.59552 -0.53204 24240 ft 307 kts 23°
2026-04-30 21:04 51.63611 -0.51037 24239 ft 307 kts 23°
2026-04-30 21:05 51.65639 -0.49952 24238 ft 307 kts 23°
2026-04-30 21:05 51.67666 -0.48867 24236 ft 307 kts 23°
2026-04-30 21:05 51.69693 -0.47781 24284 ft 307 kts 23°
2026-04-30 21:05 51.71723 -0.46693 24285 ft 307 kts 23°
2026-04-30 21:06 51.73751 -0.45605 24287 ft 307 kts 23°
2026-04-30 21:06 51.75777 -0.44515 24286 ft 307 kts 23°
2026-04-30 21:06 51.77803 -0.43427 24238 ft 307 kts 23°
2026-04-30 21:06 51.79830 -0.42336 24240 ft 307 kts 23°
2026-04-30 21:07 51.81838 -0.41174 24239 ft 306 kts 25°
2026-04-30 21:07 51.83814 -0.40005 24239 ft 307 kts 24°
2026-04-30 21:07 51.85827 -0.38840 24239 ft 307 kts 24°
2026-04-30 21:07 51.87837 -0.37658 24239 ft 307 kts 25°
2026-04-30 21:08 51.89845 -0.36464 24240 ft 307 kts 25°
2026-04-30 21:08 51.91854 -0.35273 24240 ft 307 kts 24°
2026-04-30 21:08 51.93861 -0.34086 24240 ft 307 kts 24°
2026-04-30 21:08 51.95871 -0.32897 24241 ft 307 kts 24°
2026-04-30 21:09 51.97870 -0.31713 24129 ft 297 kts 24°
2026-04-30 21:09 51.99812 -0.30560 23381 ft 295 kts 25°
2026-04-30 21:09 52.01701 -0.29435 22725 ft 282 kts 25°
2026-04-30 21:09 52.03537 -0.28341 22078 ft 288 kts 25°
2026-04-30 21:10 52.05462 -0.27185 21473 ft 301 kts 24°
2026-04-30 21:10 52.07449 -0.26002 20883 ft 306 kts 24°
2026-04-30 21:10 52.09453 -0.24814 20304 ft 306 kts 24°
2026-04-30 21:10 52.11449 -0.23624 19730 ft 305 kts 24°
2026-04-30 21:11 52.13415 -0.22447 19176 ft 305 kts 23°
2026-04-30 21:11 52.15406 -0.21254 18621 ft 305 kts 23°
2026-04-30 21:11 52.17399 -0.20061 18000 ft 306 kts 23°
2026-04-30 21:11 52.19400 -0.18861 17402 ft 306 kts 23°
2026-04-30 21:12 52.21401 -0.17660 16779 ft 307 kts 23°
2026-04-30 21:12 52.23414 -0.16450 16180 ft 308 kts 23°
2026-04-30 21:12 52.25420 -0.15245 15596 ft 307 kts 23°
2026-04-30 21:12 52.27423 -0.14041 14950 ft 306 kts 23°
2026-04-30 21:13 52.29411 -0.12844 14314 ft 302 kts 23°
2026-04-30 21:13 52.31374 -0.11661 13642 ft 299 kts 23°
2026-04-30 21:13 52.33320 -0.10485 12940 ft 297 kts 23°
2026-04-30 21:13 52.35247 -0.09321 12261 ft 293 kts 23°
2026-04-30 21:14 52.37151 -0.08175 11588 ft 290 kts 22°
2026-04-30 21:14 52.39039 -0.07047 10937 ft 287 kts 22°
2026-04-30 21:14 52.40908 -0.05925 10299 ft 285 kts 22°
2026-04-30 21:14 52.42755 -0.04810 9615 ft 281 kts 22°
2026-04-30 21:15 52.44547 -0.03619 8903 ft 274 kts 33°
2026-04-30 21:15 52.45793 -0.01430 8200 ft 259 kts 69°
2026-04-30 21:15 52.46090 0.01366 7512 ft 245 kts 95°
2026-04-30 21:15 52.45963 0.04120 6867 ft 240 kts 99°
2026-04-30 21:16 52.45688 0.06777 6243 ft 233 kts 114°
2026-04-30 21:16 52.44644 0.08730 5616 ft 231 kts 151°
2026-04-30 21:16 52.43106 0.09177 5019 ft 226 kts 183°
2026-04-30 21:16 52.41625 0.08754 4398 ft 206 kts 189°
2026-04-30 21:17 52.40396 0.07807 3773 ft 198 kts 220°
2026-04-30 21:17 52.39890 0.05794 3152 ft 191 kts 256°
2026-04-30 21:17 52.39761 0.03742 2534 ft 172 kts 251°
2026-04-30 21:17 52.39567 0.01850 2038 ft 167 kts 250°
2026-04-30 21:18 52.39388 -0.00027 1683 ft 166 kts 251°
2026-04-30 21:18 52.39194 -0.01831 1472 ft 157 kts 250°
2026-04-30 21:18 52.38969 -0.03615 1492 ft 156 kts 247°
2026-04-30 21:18 52.38569 -0.05104 1476 ft 132 kts 230°
2026-04-30 21:19 52.38159 -0.06370 1469 ft 121 kts 231°
2026-04-30 21:19 52.37770 -0.07581 1477 ft 126 kts 230°
2026-04-30 21:19 52.37309 -0.08923 1495 ft 143 kts 231°
2026-04-30 21:19 52.36785 -0.10394 1489 ft 154 kts 231°
2026-04-30 21:20 52.36232 -0.11896 1470 ft 145 kts 225°
2026-04-30 21:20 52.35539 -0.12796 1365 ft 125 kts 192°
2026-04-30 21:20 52.34689 -0.12943 1377 ft 122 kts 160°
2026-04-30 21:20 52.34050 -0.12106 1348 ft 125 kts 116°
2026-04-30 21:21 52.34051 -0.10667 1479 ft 136 kts 77°
2026-04-30 21:21 52.34570 -0.09307 1451 ft 140 kts 65°
2026-04-30 21:21 52.35420 -0.07000 989 ft 107 kts 60°
2026-04-30 21:22 52.36118 -0.06764 770 ft 110 kts 341°
2026-04-30 21:22 52.35754 -0.10047 130 ft 77 kts 265°
2026-04-30 21:23 52.35709 -0.10786 131 ft 58 kts 263°
2026-04-30 21:23 52.35667 -0.11287 131 ft 29 kts 261°
2026-04-30 21:23 52.35647 -0.11336 132 ft 0 kts 134°